[[{"header":{"parameterUnit":"m.s-1","parameterCategory":1,"la1":30.2991,"la2":30.254,"lo1":-89.0895,"lo2":-89.0444,"dy":0.0017,"dx":0.0017,"nx":28,"ny":28,"refTime":"2024-05-19T21:00:00:Z","depth":0,"parameterNumber":2,"parameterNumberName":"U-component_of_WINDS"},"data":[0,0,0,0,0,0,0,0,0,0,0,0,0,0,0,0,0,0,0,0,0,0,0,0,0,0,0,0,0,0,0,0,0,0,0,0,0,0,0,0,0,0,0,0,0,0,0,0,0,0,0,0,0,0,0,0,0,0,-1.2118,-1.2119,0,-1.2136,-1.2136,-1.2136,-1.2123,-1.2123,-1.2122,-1.2122,-1.214,-1.2141,-1.2142,0,0,0,0,0,0,0,0,0,0,0,0,0,-1.2075,-1.2076,-1.2118,-1.2119,-1.2119,-1.2136,-1.2136,-1.2136,-1.2124,-1.2123,-1.2122,-1.2122,-1.214,-1.2141,-1.2142,0,0,0,0,0,0,0,0,0,0,0,0,0,-1.2094,-1.2077,-1.2118,-1.2115,-1.2114,-1.2135,-1.2136,-1.2136,-1.2124,-1.2123,-1.2122,-1.2121,-1.2139,-1.2141,-1.2142,-1.2168,0,0,-1.2147,-1.2147,0,0,0,0,0,0,0,0,-1.2093,-1.2095,-1.2115,-1.2115,-1.2115,-1.2127,-1.2127,-1.2147,-1.2124,-1.212,-1.2122,-1.2121,-1.2136,-1.2138,-1.2143,-1.2169,-1.217,-1.2147,-1.2148,-1.2148,-1.2149,0,0,0,0,0,0,0,-1.2091,-1.2094,-1.2125,-1.2115,-1.2115,-1.2112,-1.2114,-1.2131,-1.2133,-1.212,-1.212,-1.2122,-1.2136,-1.2142,-1.2143,-1.217,-1.2147,-1.2148,-1.2149,-1.215,-1.2218,-1.2219,0,0,0,0,0,0,-1.209,-1.2093,-1.2125,-1.2126,-1.2101,-1.2114,-1.2116,-1.2124,-1.2132,-1.2133,-1.2122,-1.2121,-1.2139,-1.2142,-1.2144,-1.2174,-1.2148,-1.215,-1.2151,-1.2217,-1.2218,-1.2219,0,0,0,0,0,0,-1.2089,-1.2093,-1.2124,-1.2109,-1.2113,-1.2115,-1.2124,-1.2124,-1.213,-1.2134,-1.2134,-1.2128,-1.2139,-1.2142,-1.2162,-1.2175,-1.215,-1.2152,-1.2216,-1.2217,-1.2219,-1.2236,0,0,0,0,0,0,-1.2088,-1.2093,-1.2103,-1.211,-1.2114,-1.2142,-1.2125,-1.2125,-1.2132,-1.2131,-1.2139,-1.214,-1.2138,-1.216,-1.2164,-1.2177,-1.2153,-1.2215,-1.2216,-1.2218,-1.2234,-1.2238,-1.2241,0,0,0,0,0,-1.2087,-1.2107,-1.2103,-1.2107,-1.2126,-1.2142,-1.2145,-1.2143,-1.2134,-1.2143,-1.2146,-1.2139,-1.2173,-1.2162,-1.2166,-1.218,-1.2214,-1.2216,-1.2218,-1.2233,-1.2237,-1.2241,0,0,0,0,0,0,-1.2102,-1.2108,-1.2104,-1.2127,-1.2134,-1.214,-1.2153,-1.2148,-1.2158,-1.2156,-1.2154,-1.2155,-1.2177,-1.218,-1.2168,-1.2205,-1.2192,-1.2195,-1.2202,-1.2206,-1.2209,-1.2208,-1.2154,0,0,0,0,0,-1.2108,-1.212,-1.2125,-1.2145,-1.2149,-1.215,-1.2157,-1.2155,-1.2163,-1.2166,-1.217,-1.2178,-1.219,-1.2198,-1.221,-1.2235,-1.2237,-1.2247,-1.225,-1.2252,-1.2255,-1.2268,-1.2273,-1.2226,-1.2226,-1.2226,0,0,-1.212,-1.2125,-1.2133,-1.2148,-1.2154,-1.2167,-1.2153,-1.2168,-1.2178,-1.2168,-1.2187,-1.2191,-1.22,-1.2222,-1.2232,-1.2226,-1.2268,-1.2255,-1.2257,-1.2258,-1.2271,-1.2275,-1.2279,-1.2227,-1.2227,-1.2227,0,0,-1.2149,-1.2154,-1.2171,-1.2177,-1.2186,-1.2186,-1.2191,-1.2198,-1.2199,-1.2219,-1.2212,-1.2224,-1.2245,-1.2252,-1.2258,-1.229,-1.2284,-1.2294,-1.2311,-1.2324,-1.2328,-1.2331,-1.2342,-1.2346,-1.2297,-1.2297,-1.2297,0,-1.2164,-1.2183,-1.2181,-1.2196,-1.2203,-1.2195,-1.2212,-1.2218,-1.223,-1.2235,-1.2228,-1.2255,-1.226,-1.2284,-1.2292,-1.2297,-1.2302,-1.2293,-1.2327,-1.2331,-1.2334,-1.2344,-1.2349,-1.2298,-1.2298,-1.2297,-1.2297,0,-1.2201,-1.2214,-1.2227,-1.2239,-1.2247,-1.2263,-1.2263,-1.2272,-1.227,-1.2271,-1.2291,-1.2297,-1.231,-1.2316,-1.2313,-1.2339,-1.2335,-1.2328,-1.2314,-1.2339,-1.2349,-1.2353,-1.2299,-1.2299,-1.2299,-1.2298,0,0,-1.2239,-1.2249,-1.2254,-1.2259,-1.2268,-1.2279,-1.2295,-1.2307,-1.2315,-1.2323,-1.2337,-1.2355,-1.2348,-1.2355,-1.2354,-1.2365,-1.239,-1.2356,-1.2356,-1.2362,-1.2419,-1.2424,-1.2429,-1.2386,-1.2387,-1.2388,-1.2418,0,-1.2269,-1.2297,-1.2295,-1.2321,-1.2334,-1.2327,-1.2341,-1.2348,-1.235,-1.2361,-1.2363,-1.2376,-1.2366,-1.2371,-1.2382,-1.2385,-1.2401,-1.2383,-1.2399,-1.2399,-1.2396,-1.2434,-1.244,-1.2469,-1.2422,-1.2423,-1.2423,0,-1.2307,-1.2317,-1.2344,-1.2351,-1.2356,-1.2369,-1.238,-1.2391,-1.2399,-1.2399,-1.2407,-1.2404,-1.242,-1.2407,-1.2429,-1.2417,-1.2423,-1.2426,-1.2427,-1.2428,-1.2413,-1.2436,-1.2478,-1.2482,-1.243,-1.2429,-1.2429,0,-1.2333,-1.2353,-1.2371,-1.2376,-1.2384,-1.2393,-1.2398,-1.2405,-1.2412,-1.2422,-1.2427,-1.2439,-1.2445,-1.2455,-1.2454,-1.2445,-1.2477,-1.2464,-1.2478,-1.2478,-1.2485,-1.2485,-1.2528,-1.249,-1.249,-1.249,-1.249,0,-1.2366,-1.2383,-1.2383,-1.2394,-1.2413,-1.2411,-1.243,-1.2433,-1.2439,-1.2452,-1.2447,-1.2458,-1.2457,-1.2469,-1.2469,-1.2488,-1.2491,-1.2492,-1.2492,-1.2492,-1.2492,-1.2496,-1.2494,-1.2491,-1.2491,-1.2491,-1.249,0,-1.2397,-1.2398,-1.2418,-1.2424,-1.2426,-1.244,-1.2446,-1.2457,-1.2458,-1.2474,-1.2477,-1.248,-1.2494,-1.2495,-1.251,-1.251,-1.2533,-1.2531,-1.253,-1.253,-1.2544,-1.2543,-1.2591,-1.2597,-1.2556,-1.2556,-1.2557,0,-1.2418,-1.2431,-1.2439,-1.2446,-1.2451,-1.2463,-1.2471,-1.247,-1.2478,-1.2488,-1.2498,-1.2511,-1.2521,-1.2543,-1.2547,-1.2559,-1.2557,-1.2573,-1.2559,-1.2559,-1.2557,-1.2556,-1.2557,-1.2576,-1.2576,-1.2577,-1.2577,0,-1.2455,-1.2455,-1.2466,-1.2477,-1.2486,-1.2495,-1.2503,-1.251,-1.2509,-1.2519,-1.2533,-1.2541,-1.2557,-1.257,-1.2582,-1.2586,-1.2582,-1.2581,-1.2585,-1.2586,-1.2585,-1.2585,-1.2538,-1.258,-1.258,-1.258,-1.2579,-1.2579,-1.2482,-1.2493,-1.25,-1.2512,-1.2518,-1.2526,-1.2537,-1.254,-1.2551,-1.2564,-1.2562,-1.2578,-1.2586,-1.2601,-1.2606,-1.2618,-1.2613,-1.2619,-1.262,-1.2622,-1.2623,-1.2583,-1.2621,-1.262,-1.262,-1.262,-1.262,0,-1.2519,-1.2523,-1.2534,-1.2546,-1.2555,-1.255,-1.2559,-1.2567,-1.2581,-1.2588,-1.2599,-1.2614,-1.2627,-1.2632,-1.2644,-1.2653,-1.2651,-1.2656,-1.2655,-1.2656,-1.2627,-1.2622,-1.2657,-1.2657,-1.2657,-1.2657,-1.2657,-1.2657,-1.2539,-1.2557,-1.2558,-1.2579,-1.2583,-1.2597,-1.2603,-1.261,-1.2616,-1.2634,-1.2644,-1.2647,-1.2653,-1.2666,-1.2678,-1.2679,-1.2684,-1.2689,-1.269,-1.2662,-1.2658,-1.2655,-1.265,-1.2691,-1.2691,-1.2718,-1.2718,-1.2718]},{"header":{"parameterUnit":"m.s-1","parameterCategory":1,"la1":30.2991,"la2":30.254,"lo1":-89.0895,"lo2":-89.0444,"dy":0.0017,"dx":0.0017,"nx":28,"ny":28,"refTime":"2024-05-19T21:00:00:Z","depth":0,"parameterNumber":3,"parameterNumberName":"V-component_of_WINDS"},"data":[0,0,0,0,0,0,0,0,0,0,0,0,0,0,0,0,0,0,0,0,0,0,0,0,0,0,0,0,0,0,0,0,0,0,0,0,0,0,0,0,0,0,0,0,0,0,0,0,0,0,0,0,0,0,0,0,0,0,1.7878,1.7878,0,1.7862,1.7862,1.7862,1.7832,1.7832,1.7831,1.7831,1.7814,1.7814,1.7814,0,0,0,0,0,0,0,0,0,0,0,0,0,1.7885,1.7885,1.7878,1.7878,1.7878,1.7862,1.7862,1.7862,1.7833,1.7832,1.7831,1.7831,1.7814,1.7814,1.7814,0,0,0,0,0,0,0,0,0,0,0,0,0,1.7877,1.7885,1.7878,1.7862,1.786,1.7862,1.7862,1.7861,1.7833,1.7832,1.7831,1.783,1.7814,1.7814,1.7814,1.7831,0,0,1.7814,1.7814,0,0,0,0,0,0,0,0,1.7877,1.7877,1.7864,1.7863,1.7861,1.7848,1.7858,1.7851,1.7833,1.7843,1.7831,1.783,1.7826,1.7825,1.7824,1.783,1.783,1.7814,1.7814,1.7814,1.7814,0,0,0,0,0,0,0,1.7878,1.7877,1.7872,1.7864,1.7862,1.7855,1.7853,1.7856,1.7839,1.7842,1.784,1.7838,1.7825,1.7824,1.7823,1.7829,1.7814,1.7814,1.7814,1.7814,1.785,1.785,0,0,0,0,0,0,1.7881,1.7878,1.7872,1.7871,1.7867,1.7856,1.7853,1.7853,1.7839,1.7836,1.7839,1.7837,1.7824,1.7823,1.7822,1.7842,1.7814,1.7814,1.7814,1.7849,1.785,1.7851,0,0,0,0,0,0,1.7881,1.7881,1.7873,1.7874,1.7872,1.7856,1.7857,1.7853,1.7852,1.7837,1.7834,1.7841,1.7823,1.7822,1.7829,1.7841,1.7814,1.7815,1.7848,1.7849,1.785,1.7881,0,0,0,0,0,0,1.7881,1.7881,1.7887,1.7874,1.7873,1.788,1.7857,1.7854,1.7852,1.785,1.7838,1.7835,1.7823,1.7829,1.7829,1.7841,1.7815,1.7846,1.7848,1.785,1.7879,1.7883,1.7887,0,0,0,0,0,1.7882,1.7896,1.7888,1.7887,1.788,1.7881,1.788,1.7865,1.7853,1.786,1.785,1.7836,1.784,1.783,1.783,1.7841,1.7846,1.7848,1.785,1.7877,1.7882,1.7887,0,0,0,0,0,0,1.7911,1.7894,1.7885,1.7895,1.789,1.7876,1.7883,1.7871,1.7869,1.7866,1.7848,1.7845,1.7855,1.7849,1.7839,1.7858,1.784,1.7842,1.7861,1.7866,1.787,1.7871,1.7815,0,0,0,0,0,1.7919,1.7921,1.7906,1.7917,1.7915,1.79,1.79,1.7889,1.7882,1.788,1.787,1.7865,1.7865,1.7865,1.7864,1.7878,1.7875,1.7885,1.7889,1.7893,1.7895,1.7902,1.7907,1.7857,1.7857,1.7857,0,0,1.7934,1.7926,1.7928,1.7923,1.7917,1.792,1.7898,1.7902,1.7903,1.788,1.7886,1.7879,1.7872,1.7882,1.7886,1.7877,1.7908,1.7895,1.7898,1.7898,1.7905,1.7909,1.7913,1.7858,1.7858,1.7858,0,0,1.7965,1.7958,1.7967,1.7962,1.7954,1.7944,1.7946,1.7934,1.7929,1.7934,1.7917,1.7919,1.7919,1.7915,1.7913,1.7942,1.7929,1.7942,1.7963,1.797,1.7974,1.7978,1.7988,1.7992,1.7944,1.7944,1.7944,0,1.7985,1.7989,1.7973,1.7978,1.7976,1.7955,1.7964,1.796,1.7952,1.7951,1.7941,1.7942,1.7935,1.7944,1.7952,1.795,1.7952,1.7943,1.7975,1.7978,1.7981,1.7991,1.7995,1.7946,1.7946,1.7945,1.7945,0,1.8015,1.8018,1.8026,1.8019,1.8018,1.8025,1.801,1.8011,1.8,1.7991,1.7998,1.7989,1.7987,1.7988,1.7977,1.7996,1.7991,1.7978,1.7961,1.7988,1.7997,1.8001,1.7948,1.7948,1.7947,1.7947,0,0,1.8063,1.8047,1.8051,1.8047,1.8037,1.8039,1.8045,1.8042,1.8044,1.8039,1.8044,1.8045,1.8033,1.8031,1.802,1.8026,1.805,1.8013,1.8012,1.802,1.8071,1.8081,1.8085,1.8042,1.8042,1.8043,1.8072,0,1.8091,1.8101,1.8087,1.8099,1.8102,1.8082,1.8088,1.8082,1.8074,1.8075,1.8066,1.8067,1.8052,1.805,1.8056,1.8046,1.806,1.8044,1.8046,1.8046,1.8049,1.809,1.81,1.8128,1.8075,1.8076,1.8076,0,1.8126,1.8123,1.8136,1.8125,1.8126,1.8131,1.8128,1.8129,1.8122,1.8116,1.8113,1.81,1.8106,1.8089,1.8096,1.8085,1.8085,1.8081,1.8082,1.8082,1.8063,1.8091,1.8136,1.8141,1.8082,1.8081,1.8081,0,1.816,1.816,1.8167,1.8165,1.8153,1.8157,1.8152,1.8145,1.8144,1.8141,1.8141,1.8139,1.8138,1.8136,1.8123,1.8112,1.8132,1.8114,1.8128,1.8128,1.8133,1.8133,1.8179,1.8132,1.8132,1.8132,1.8132,0,1.8193,1.8202,1.8183,1.8188,1.8197,1.8181,1.8191,1.8184,1.8177,1.8181,1.8164,1.8167,1.8149,1.8151,1.8141,1.8149,1.8148,1.8143,1.8141,1.8145,1.8146,1.8145,1.8143,1.8133,1.8133,1.8133,1.8133,0,1.8233,1.8221,1.8228,1.8216,1.8213,1.822,1.821,1.8214,1.8205,1.821,1.821,1.8196,1.8197,1.8183,1.8182,1.8175,1.8188,1.8181,1.819,1.8188,1.8202,1.8202,1.825,1.8256,1.8206,1.8206,1.8206,0,1.8256,1.8262,1.8251,1.8252,1.8248,1.8249,1.8249,1.8233,1.8234,1.8227,1.8232,1.8232,1.8231,1.8233,1.8223,1.8222,1.8216,1.8233,1.8215,1.822,1.8216,1.8216,1.8217,1.8236,1.8237,1.8238,1.8238,0,1.8297,1.829,1.829,1.8288,1.8288,1.8285,1.8282,1.8284,1.8267,1.8268,1.8269,1.8268,1.8267,1.8267,1.8264,1.8259,1.8246,1.8244,1.8247,1.8251,1.8256,1.8254,1.82,1.8243,1.8242,1.8242,1.8242,1.8241,1.8329,1.8334,1.8327,1.8327,1.8323,1.832,1.8323,1.8315,1.8315,1.8313,1.8304,1.8307,1.83,1.8295,1.8291,1.8293,1.8285,1.8289,1.8291,1.8292,1.8295,1.8256,1.8293,1.8293,1.8292,1.8292,1.8292,0,1.8369,1.8364,1.8365,1.836,1.8361,1.8348,1.8344,1.8345,1.8348,1.8343,1.8342,1.8344,1.8344,1.8334,1.8333,1.8337,1.8331,1.8337,1.8337,1.8336,1.8302,1.83,1.8342,1.8342,1.8342,1.8342,1.8342,1.8342,1.8391,1.8398,1.8391,1.8397,1.8391,1.8394,1.8392,1.839,1.8386,1.8388,1.8388,1.8382,1.8375,1.8373,1.8373,1.837,1.837,1.8379,1.8374,1.8343,1.8338,1.8333,1.8331,1.8379,1.8379,1.8407,1.8408,1.8408]}]]